SWR2VC LSZH-EHAM

Flight info

Callsign SWR2VC
Flight time 1h 7m
Altitude 38000
Route VEBIT T10 TORPA DCT EDOPI DCT GIVOR DCT SORAL DCT IBERA DCT BUB/N0434F300 Y28 HELEN
Aircraft A320/M-SDE2E3FGIJ1RWXY/LB1

Departure

Time 2026-05-06 17:27
Airport Zürich Airport (LSZH)

Arrival

Time 2026-05-06 18:35
Airport Amsterdam Airport Schiphol (EHAM)
Time Latitude Longitude Altitude Speed Heading
2026-05-06 17:00 47.44624 8.56021 1397 ft 0 kts 245°
2026-05-06 17:20 47.44615 8.55993 1397 ft 6 kts 245°
2026-05-06 17:21 47.44627 8.55902 1399 ft 14 kts 321°
2026-05-06 17:21 47.44724 8.55833 1394 ft 16 kts 335°
2026-05-06 17:21 47.44828 8.55761 1398 ft 17 kts 335°
2026-05-06 17:21 47.44945 8.55714 1400 ft 18 kts
2026-05-06 17:22 47.45039 8.55713 1408 ft 11 kts 339°
2026-05-06 17:22 47.45110 8.55665 1407 ft 12 kts 335°
2026-05-06 17:22 47.45199 8.55603 1408 ft 19 kts 335°
2026-05-06 17:22 47.45336 8.55537 1411 ft 22 kts 334°
2026-05-06 17:23 47.45482 8.55434 1403 ft 25 kts 335°
2026-05-06 17:23 47.45636 8.55336 1402 ft 16 kts 354°
2026-05-06 17:23 47.45667 8.55452 1401 ft 12 kts 96°
2026-05-06 17:23 47.45659 8.55561 1408 ft 9 kts 96°
2026-05-06 17:24 47.45652 8.55669 1405 ft 14 kts 95°
2026-05-06 17:24 47.45639 8.55840 1408 ft 19 kts 96°
2026-05-06 17:24 47.45626 8.56026 1410 ft 17 kts 96°
2026-05-06 17:24 47.45615 8.56187 1415 ft 15 kts 96°
2026-05-06 17:25 47.45603 8.56350 1418 ft 17 kts 96°
2026-05-06 17:25 47.45590 8.56535 1420 ft 19 kts 95°
2026-05-06 17:25 47.45577 8.56719 1421 ft 16 kts 96°
2026-05-06 17:25 47.45567 8.56868 1420 ft 13 kts 95°
2026-05-06 17:26 47.45575 8.56994 1422 ft 13 kts 53°
2026-05-06 17:26 47.45645 8.57026 1425 ft 7 kts
2026-05-06 17:26 47.45664 8.56990 1424 ft 1 kts 275°
2026-05-06 17:26 47.45664 8.56989 1424 ft 0 kts 275°
2026-05-06 17:27 47.45667 8.56949 1424 ft 25 kts 276°
2026-05-06 17:27 47.45714 8.56288 1414 ft 100 kts 276°
2026-05-06 17:27 47.45806 8.54957 1431 ft 153 kts 276°
2026-05-06 17:27 47.45919 8.53399 2118 ft 151 kts 275°
2026-05-06 17:28 47.46026 8.51866 2909 ft 149 kts 276°
2026-05-06 17:28 47.46133 8.50349 3568 ft 149 kts 276°
2026-05-06 17:28 47.46241 8.48838 4188 ft 148 kts 271°
2026-05-06 17:28 47.45940 8.47431 4722 ft 150 kts 227°
2026-05-06 17:29 47.45025 8.46538 5074 ft 168 kts 213°
2026-05-06 17:29 47.44126 8.45340 5441 ft 184 kts 231°
2026-05-06 17:29 47.43330 8.43753 5728 ft 206 kts 234°
2026-05-06 17:29 47.42461 8.41904 6050 ft 231 kts 235°
2026-05-06 17:30 47.41504 8.39846 6516 ft 254 kts 238°
2026-05-06 17:30 47.40892 8.37383 7225 ft 264 kts 257°
2026-05-06 17:30 47.40517 8.34709 8135 ft 268 kts 257°
2026-05-06 17:30 47.40143 8.31993 9060 ft 272 kts 257°
2026-05-06 17:31 47.39767 8.29243 9977 ft 275 kts 257°
2026-05-06 17:31 47.39376 8.26394 10415 ft 295 kts 257°
2026-05-06 17:31 47.38948 8.23299 10737 ft 317 kts 257°
2026-05-06 17:31 47.38500 8.20069 11376 ft 325 kts 257°
2026-05-06 17:32 47.38045 8.16774 12157 ft 329 kts 257°
2026-05-06 17:32 47.37587 8.13446 12949 ft 333 kts 257°
2026-05-06 17:32 47.37122 8.10081 13739 ft 337 kts 257°
2026-05-06 17:32 47.36651 8.06680 14410 ft 341 kts 256°
2026-05-06 17:33 47.36168 8.03239 15056 ft 345 kts 256°
2026-05-06 17:33 47.35783 7.99722 15690 ft 352 kts 266°
2026-05-06 17:33 47.35991 7.96093 16324 ft 359 kts 275°
2026-05-06 17:33 47.36336 7.92425 16964 ft 363 kts 276°
2026-05-06 17:34 47.36699 7.88720 17604 ft 368 kts 276°
2026-05-06 17:34 47.37070 7.84964 18214 ft 372 kts 276°
2026-05-06 17:34 47.37444 7.81155 18763 ft 376 kts 276°
2026-05-06 17:34 47.37821 7.77318 19288 ft 381 kts 276°
2026-05-06 17:35 47.38198 7.73435 19867 ft 384 kts 275°
2026-05-06 17:35 47.38573 7.69522 20433 ft 387 kts 275°
2026-05-06 17:35 47.38946 7.65572 20983 ft 391 kts 275°
2026-05-06 17:36 47.39691 7.57556 22099 ft 398 kts 275°
2026-05-06 17:36 47.40071 7.53493 22633 ft 402 kts 275°
2026-05-06 17:36 47.40454 7.49391 23185 ft 405 kts 275°
2026-05-06 17:36 47.40842 7.45253 23688 ft 408 kts 275°
2026-05-06 17:37 47.41231 7.41091 24150 ft 411 kts 275°
2026-05-06 17:37 47.41622 7.36905 24561 ft 414 kts 275°
2026-05-06 17:37 47.42012 7.32687 24970 ft 416 kts 275°
2026-05-06 17:37 47.42394 7.28499 25352 ft 419 kts 275°
2026-05-06 17:38 47.42783 7.24220 25762 ft 422 kts 275°
2026-05-06 17:38 47.43174 7.19913 26158 ft 424 kts 274°
2026-05-06 17:38 47.43562 7.15579 26556 ft 427 kts 274°
2026-05-06 17:38 47.43951 7.11223 26934 ft 429 kts 274°
2026-05-06 17:39 47.44344 7.06836 27311 ft 433 kts 275°
2026-05-06 17:39 47.44743 7.02409 27626 ft 436 kts 275°
2026-05-06 17:39 47.45146 6.97962 27976 ft 439 kts 275°
2026-05-06 17:39 47.45548 6.93478 28326 ft 441 kts 275°
2026-05-06 17:40 47.45945 6.88963 28673 ft 444 kts 275°
2026-05-06 17:40 47.46336 6.84436 29009 ft 446 kts 275°
2026-05-06 17:40 47.46766 6.79868 29331 ft 450 kts 279°
2026-05-06 17:40 47.47726 6.75444 29649 ft 457 kts 292°
2026-05-06 17:41 47.49381 6.71411 29947 ft 463 kts 307°
2026-05-06 17:41 47.51653 6.68024 30212 ft 467 kts 321°
2026-05-06 17:41 47.54415 6.65490 30487 ft 469 kts 335°
2026-05-06 17:41 47.57511 6.63962 30725 ft 471 kts 349°
2026-05-06 17:42 47.60759 6.63248 30937 ft 473 kts 352°
2026-05-06 17:42 47.64028 6.62599 31187 ft 474 kts 353°
2026-05-06 17:42 47.67299 6.61958 31487 ft 474 kts 352°
2026-05-06 17:42 47.70566 6.61319 31772 ft 474 kts 352°
2026-05-06 17:43 47.73839 6.60676 32079 ft 474 kts 352°
2026-05-06 17:43 47.77111 6.60023 32384 ft 474 kts 352°
2026-05-06 17:43 47.80381 6.59360 32678 ft 474 kts 351°
2026-05-06 17:43 47.83653 6.58692 32982 ft 475 kts 351°
2026-05-06 17:44 47.86926 6.58024 33297 ft 475 kts 351°
2026-05-06 17:44 47.90203 6.57354 33606 ft 475 kts 351°
2026-05-06 17:44 47.93474 6.56683 33891 ft 475 kts 351°
2026-05-06 17:44 47.96749 6.55959 34128 ft 475 kts 349°
2026-05-06 17:45 47.99971 6.55195 34393 ft 475 kts 349°
2026-05-06 17:45 48.03271 6.54379 34668 ft 474 kts 349°
2026-05-06 17:45 48.06523 6.53565 34928 ft 474 kts 349°
2026-05-06 17:45 48.09731 6.52768 35175 ft 474 kts 349°
2026-05-06 17:46 48.13029 6.51961 35423 ft 473 kts 349°
2026-05-06 17:46 48.16234 6.51188 35665 ft 473 kts 349°
2026-05-06 17:46 48.19481 6.50413 35894 ft 472 kts 349°
2026-05-06 17:46 48.22725 6.49637 36114 ft 472 kts 349°
2026-05-06 17:47 48.25969 6.48858 36346 ft 472 kts 349°
2026-05-06 17:47 48.29210 6.48078 36573 ft 471 kts 349°
2026-05-06 17:47 48.32445 6.47299 36788 ft 471 kts 349°
2026-05-06 17:47 48.35678 6.46517 36996 ft 471 kts 349°
2026-05-06 17:48 48.37836 6.45993 37158 ft 470 kts 349°
2026-05-06 17:48 48.41062 6.45212 37391 ft 469 kts 349°
2026-05-06 17:48 48.44281 6.44431 37628 ft 468 kts 349°
2026-05-06 17:48 48.47497 6.43644 37824 ft 468 kts 349°
2026-05-06 17:49 48.53880 6.42078 37863 ft 467 kts 349°
2026-05-06 17:49 48.60293 6.40509 37866 ft 467 kts 349°
2026-05-06 17:50 48.66732 6.39310 37865 ft 469 kts 359°
2026-05-06 17:50 48.73252 6.39894 37868 ft 470 kts
2026-05-06 17:51 48.79779 6.40561 37872 ft 470 kts
2026-05-06 17:51 48.86312 6.41213 37875 ft 470 kts
2026-05-06 17:52 48.92842 6.41869 37884 ft 470 kts
2026-05-06 17:52 48.99375 6.42535 37881 ft 470 kts
2026-05-06 17:53 49.05909 6.43216 37883 ft 470 kts
2026-05-06 17:53 49.12420 6.43143 37877 ft 467 kts 349°
2026-05-06 17:54 49.18702 6.40767 37878 ft 465 kts 342°
2026-05-06 17:54 49.24944 6.38184 37873 ft 465 kts 342°
2026-05-06 17:55 49.31191 6.35618 37869 ft 465 kts 343°
2026-05-06 17:55 49.37442 6.33067 37869 ft 464 kts 343°
2026-05-06 17:56 49.43636 6.30504 37879 ft 464 kts 342°
2026-05-06 17:56 49.49773 6.27576 37877 ft 460 kts 333°
2026-05-06 17:57 49.55108 6.22375 37892 ft 454 kts 319°
2026-05-06 17:57 49.60080 6.16375 37888 ft 454 kts 320°
2026-05-06 17:58 49.65055 6.10389 37884 ft 454 kts 320°
2026-05-06 17:58 49.70027 6.04385 37878 ft 454 kts 319°
2026-05-06 17:59 49.74954 5.98394 37880 ft 454 kts 319°
2026-05-06 17:59 49.79919 5.92355 37872 ft 454 kts 319°
2026-05-06 18:00 49.84888 5.86302 37892 ft 454 kts 319°
2026-05-06 18:00 49.89847 5.80236 37888 ft 454 kts 319°
2026-05-06 18:01 49.94804 5.74151 37899 ft 454 kts 319°
2026-05-06 18:01 49.99759 5.68056 37885 ft 454 kts 319°
2026-05-06 18:02 50.04713 5.61952 37903 ft 454 kts 319°
2026-05-06 18:02 50.09654 5.55839 37907 ft 454 kts 319°
2026-05-06 18:03 50.14594 5.49731 37922 ft 453 kts 319°
2026-05-06 18:03 50.19527 5.43602 37912 ft 453 kts 319°
2026-05-06 18:04 50.24449 5.37463 37917 ft 453 kts 319°
2026-05-06 18:04 50.29364 5.31308 37904 ft 453 kts 319°
2026-05-06 18:05 50.34276 5.25151 37911 ft 453 kts 319°
2026-05-06 18:05 50.39188 5.18987 37780 ft 451 kts 319°
2026-05-06 18:06 50.41629 5.15918 37384 ft 449 kts 319°
2026-05-06 18:06 50.44069 5.12843 37115 ft 450 kts 319°
2026-05-06 18:06 50.46478 5.09802 36856 ft 451 kts 319°
2026-05-06 18:06 50.48916 5.06714 36609 ft 450 kts 319°
2026-05-06 18:07 50.51350 5.03629 35953 ft 452 kts 319°
2026-05-06 18:07 50.53833 5.00480 35091 ft 454 kts 319°
2026-05-06 18:07 50.56264 4.97396 34260 ft 455 kts 320°
2026-05-06 18:07 50.58729 4.94265 33267 ft 457 kts 320°
2026-05-06 18:08 50.61207 4.91107 32262 ft 458 kts 320°
2026-05-06 18:08 50.63660 4.87975 31738 ft 449 kts 320°
2026-05-06 18:08 50.66071 4.84894 31103 ft 444 kts 320°
2026-05-06 18:08 50.68462 4.81837 30482 ft 440 kts 320°
2026-05-06 18:09 50.70807 4.78834 29841 ft 436 kts 319°
2026-05-06 18:09 50.73142 4.75843 29211 ft 430 kts 319°
2026-05-06 18:09 50.75454 4.72880 28628 ft 425 kts 319°
2026-05-06 18:09 50.77722 4.69968 28035 ft 419 kts 320°
2026-05-06 18:10 50.79967 4.67078 27488 ft 415 kts 320°
2026-05-06 18:10 50.82138 4.64137 27084 ft 405 kts 313°
2026-05-06 18:10 50.83962 4.60847 26981 ft 389 kts 310°
2026-05-06 18:10 50.85697 4.57665 26887 ft 376 kts 310°
2026-05-06 18:11 50.87410 4.54523 26808 ft 378 kts 309°
2026-05-06 18:11 50.89127 4.51364 26722 ft 378 kts 309°
2026-05-06 18:11 50.90837 4.48209 26629 ft 378 kts 309°
2026-05-06 18:11 50.92543 4.45052 26543 ft 376 kts 309°
2026-05-06 18:12 50.94232 4.41918 26457 ft 376 kts 309°
2026-05-06 18:12 50.95925 4.38770 26372 ft 376 kts 309°
2026-05-06 18:12 50.97624 4.35613 26285 ft 375 kts 309°
2026-05-06 18:12 50.99319 4.32467 26196 ft 375 kts 309°
2026-05-06 18:13 51.01008 4.29326 26115 ft 374 kts 309°
2026-05-06 18:13 51.02694 4.26186 26031 ft 373 kts 309°
2026-05-06 18:13 51.04372 4.23051 25963 ft 373 kts 309°
2026-05-06 18:13 51.06018 4.19972 25873 ft 373 kts 309°
2026-05-06 18:14 51.07717 4.16789 25803 ft 372 kts 309°
2026-05-06 18:14 51.09362 4.13704 25713 ft 371 kts 309°
2026-05-06 18:14 51.11032 4.10571 25629 ft 371 kts 309°
2026-05-06 18:14 51.12703 4.07436 25545 ft 371 kts 309°
2026-05-06 18:15 51.14368 4.04307 25458 ft 370 kts 309°
2026-05-06 18:15 51.16028 4.01176 25378 ft 369 kts 309°
2026-05-06 18:15 51.17682 3.98047 25289 ft 369 kts 309°
2026-05-06 18:15 51.19337 3.94917 25049 ft 370 kts 309°
2026-05-06 18:16 51.21108 3.91961 24571 ft 368 kts 318°
2026-05-06 18:16 51.23190 3.89604 24101 ft 368 kts 329°
2026-05-06 18:16 51.25523 3.87930 23632 ft 371 kts 340°
2026-05-06 18:16 51.28096 3.86987 23111 ft 385 kts 352°
2026-05-06 18:17 51.30778 3.86794 22625 ft 387 kts 358°
2026-05-06 18:17 51.33466 3.86736 22094 ft 385 kts 358°
2026-05-06 18:17 51.36171 3.86676 21348 ft 389 kts 358°
2026-05-06 18:17 51.38862 3.86615 20812 ft 386 kts 358°
2026-05-06 18:18 51.41537 3.86552 20268 ft 384 kts 358°
2026-05-06 18:18 51.44203 3.86489 19726 ft 382 kts 358°
2026-05-06 18:18 51.46852 3.86426 19185 ft 380 kts 358°
2026-05-06 18:18 51.49488 3.86362 18649 ft 378 kts 358°
2026-05-06 18:19 51.52106 3.86295 18096 ft 376 kts 357°
2026-05-06 18:19 51.54715 3.86228 17530 ft 374 kts 357°
2026-05-06 18:19 51.57303 3.86164 17007 ft 370 kts 356°
2026-05-06 18:19 51.59862 3.86103 16481 ft 366 kts 357°
2026-05-06 18:20 51.62403 3.86045 15970 ft 364 kts 357°
2026-05-06 18:20 51.64924 3.85989 15456 ft 361 kts 356°
2026-05-06 18:20 51.67429 3.85931 14947 ft 358 kts 356°
2026-05-06 18:20 51.69914 3.86075 14438 ft 358 kts
2026-05-06 18:21 51.72317 3.87119 13938 ft 359 kts 20°
2026-05-06 18:21 51.74480 3.89091 13545 ft 356 kts 34°
2026-05-06 18:21 51.76332 3.91668 13279 ft 347 kts 40°
2026-05-06 18:21 51.78116 3.94245 12857 ft 342 kts 40°
2026-05-06 18:22 51.79883 3.96789 12388 ft 339 kts 40°
2026-05-06 18:22 51.81638 3.99312 11887 ft 336 kts 40°
2026-05-06 18:22 51.83376 4.01815 11419 ft 333 kts 40°
2026-05-06 18:22 51.85103 4.04304 10917 ft 331 kts 40°
2026-05-06 18:23 51.86808 4.06772 10451 ft 328 kts 40°
2026-05-06 18:23 51.88484 4.09205 10203 ft 317 kts 40°
2026-05-06 18:23 51.90086 4.11531 10082 ft 304 kts 40°
2026-05-06 18:23 51.91635 4.13775 9958 ft 292 kts 39°
2026-05-06 18:24 51.93160 4.15867 9753 ft 284 kts 38°
2026-05-06 18:24 51.94699 4.17890 9317 ft 285 kts 36°
2026-05-06 18:24 51.96234 4.19880 8946 ft 281 kts 38°
2026-05-06 18:24 51.97761 4.21857 8498 ft 281 kts 38°
2026-05-06 18:25 51.99275 4.23830 8116 ft 278 kts 38°
2026-05-06 18:25 52.00765 4.25787 7681 ft 273 kts 38°
2026-05-06 18:25 52.02227 4.27718 6982 ft 270 kts 39°
2026-05-06 18:25 52.03679 4.29641 6364 ft 266 kts 39°
2026-05-06 18:26 52.05085 4.31508 5806 ft 262 kts 39°
2026-05-06 18:26 52.06492 4.33380 5337 ft 262 kts 39°
2026-05-06 18:26 52.08023 4.34920 4999 ft 257 kts 19°
2026-05-06 18:26 52.09773 4.35320 4654 ft 254 kts
2026-05-06 18:27 52.11520 4.35399 4432 ft 245 kts
2026-05-06 18:27 52.13158 4.35444 4430 ft 228 kts
2026-05-06 18:27 52.14726 4.35466 4434 ft 221 kts
2026-05-06 18:27 52.16221 4.35477 4315 ft 209 kts
2026-05-06 18:28 52.17638 4.35543 4179 ft 199 kts 12°
2026-05-06 18:28 52.18803 4.36530 4043 ft 187 kts 49°
2026-05-06 18:28 52.19280 4.38416 3904 ft 181 kts 83°
2026-05-06 18:28 52.19253 4.40423 3685 ft 179 kts 92°
2026-05-06 18:29 52.19138 4.42452 3446 ft 180 kts 93°
2026-05-06 18:29 52.19018 4.44430 3233 ft 179 kts 92°
2026-05-06 18:29 52.18911 4.46422 3073 ft 177 kts 87°
2026-05-06 18:29 52.19143 4.48364 3028 ft 174 kts 64°
2026-05-06 18:30 52.19759 4.50063 2953 ft 174 kts 56°
2026-05-06 18:30 52.20392 4.51687 2825 ft 172 kts 57°
2026-05-06 18:30 52.21026 4.53316 2703 ft 171 kts 57°
2026-05-06 18:30 52.21667 4.54968 2618 ft 170 kts 57°
2026-05-06 18:31 52.22287 4.56566 2473 ft 167 kts 57°
2026-05-06 18:31 52.22902 4.58157 2248 ft 167 kts 56°
2026-05-06 18:31 52.23511 4.59731 2025 ft 161 kts 56°
2026-05-06 18:31 52.24101 4.61255 1786 ft 154 kts 56°
2026-05-06 18:32 52.24644 4.62661 1600 ft 140 kts 56°
2026-05-06 18:32 52.25157 4.63988 1416 ft 136 kts 56°
2026-05-06 18:32 52.25657 4.65283 1226 ft 134 kts 56°
2026-05-06 18:32 52.26155 4.66572 1046 ft 134 kts 55°
2026-05-06 18:33 52.26653 4.67862 850 ft 135 kts 55°
2026-05-06 18:33 52.27148 4.69142 677 ft 133 kts 56°
2026-05-06 18:33 52.27647 4.70447 525 ft 138 kts 55°
2026-05-06 18:33 52.28180 4.71818 329 ft 146 kts 55°
2026-05-06 18:34 52.28700 4.73185 113 ft 140 kts 55°
2026-05-06 18:34 52.29210 4.74509 3 ft 128 kts 56°
2026-05-06 18:34 52.29606 4.75540 -2 ft 85 kts 58°
2026-05-06 18:34 52.29862 4.76204 -3 ft 53 kts 58°
2026-05-06 18:35 52.30023 4.76532 -2 ft 28 kts 34°
2026-05-06 18:35 52.30134 4.76631 -1 ft 26 kts 28°
2026-05-06 18:35 52.30210 4.76697 -1 ft 3 kts 27°
2026-05-06 18:35 52.30217 4.76702 -1 ft 2 kts 27°
2026-05-06 18:36 52.30219 4.76704 -1 ft 0 kts 27°
2026-05-06 18:36 52.30223 4.76707 -1 ft 1 kts 27°
2026-05-06 18:36 52.30235 4.76717 -1 ft 0 kts 27°
2026-05-06 18:36 52.30236 4.76718 -1 ft 0 kts 27°
2026-05-06 18:37 52.30247 4.76728 -1 ft 4 kts 27°
2026-05-06 18:37 52.30286 4.76747 -1 ft 8 kts
2026-05-06 18:38 52.30341 4.76695 -1 ft 11 kts 295°
2026-05-06 18:38 52.30328 4.76578 -1 ft 10 kts 268°
2026-05-06 18:38 52.30379 4.76495 -1 ft 12 kts 328°
2026-05-06 18:38 52.30453 4.76420 -1 ft 12 kts 328°
2026-05-06 18:39 52.30459 4.76364 -1 ft 4 kts 235°
2026-05-06 18:39 52.30446 4.76332 -1 ft 2 kts 238°
2026-05-06 18:39 52.30442 4.76321 -1 ft 0 kts 238°